Time,TemperatureF,DewpointF,PressureIn,WindDirection,WindDirectionDegrees,WindSpeedMPH,WindSpeedGustMPH,Humidity,HourlyPrecipIn,Conditions,Clouds,dailyrainin,SolarRadiationWatts/m^2,SoftwareType,DateUTC
2013-04-04 00:01:00,46.9,35.8,30.27,NE,50,0.0,0.0,65,0.00,OVC,,0.00,0.0,WeatherDisplay:10.37,2013-04-04 04:01:00,
2013-04-04 00:21:00,46.7,34.4,30.26,NE,50,0.0,0.0,62,0.00,OVC,,0.00,0.0,WeatherDisplay:10.37,2013-04-04 04:21:00,
2013-04-04 00:26:00,46.5,31.6,30.26,NE,50,0.0,0.0,56,0.00,OVC,,0.00,0.0,WeatherDisplay:10.37,2013-04-04 04:26:00,
2013-04-04 00:31:00,46.5,32.5,30.26,NE,50,0.0,0.0,58,0.00,OVC,,0.00,0.0,WeatherDisplay:10.37,2013-04-04 04:31:00,
2013-04-04 00:36:00,46.5,31.2,30.26,NE,50,0.0,0.0,55,0.00,OVC,,0.00,0.0,WeatherDisplay:10.37,2013-04-04 04:36:00,
2013-04-04 00:41:00,46.4,29.7,30.26,NE,50,0.0,0.0,52,0.00,OVC,,0.00,0.0,WeatherDisplay:10.37,2013-04-04 04:41:00,
2013-04-04 00:46:00,46.4,30.2,30.26,NE,50,0.0,0.0,53,0.00,OVC,,0.00,0.0,WeatherDisplay:10.37,2013-04-04 04:46:00,
2013-04-04 00:51:00,46.5,31.2,30.26,NE,50,0.0,0.0,55,0.00,OVC,,0.00,0.0,WeatherDisplay:10.37,2013-04-04 04:51:00,
2013-04-04 01:01:00,46.4,30.2,30.26,NE,50,0.0,0.0,53,0.00,BKN,,0.00,0.0,WeatherDisplay:10.37,2013-04-04 05:01:00,
2013-04-04 01:11:00,46.4,29.2,30.26,NE,50,0.0,0.0,51,0.00,BKN,,0.00,0.0,WeatherDisplay:10.37,2013-04-04 05:11:00,
2013-04-04 01:16:00,46.4,29.2,30.26,NE,50,0.0,0.0,51,0.00,BKN,,0.00,0.0,WeatherDisplay:10.37,2013-04-04 05:16:00,
2013-04-04 01:21:00,46.2,29.1,30.25,NE,50,0.0,0.0,51,0.00,BKN,,0.00,0.0,WeatherDisplay:10.37,2013-04-04 05:21:00,
2013-04-04 01:26:00,46.2,29.1,30.25,NE,50,0.0,0.0,51,0.00,BKN,,0.00,0.0,WeatherDisplay:10.37,2013-04-04 05:26:00,
2013-04-04 01:36:00,46.1,28.0,30.25,NE,50,0.0,0.0,49,0.00,BKN,,0.00,0.0,WeatherDisplay:10.37,2013-04-04 05:36:00,
2013-04-04 01:46:00,46.0,29.8,30.25,NE,50,0.0,0.0,53,0.00,BKN,,0.00,0.0,WeatherDisplay:10.37,2013-04-04 05:46:00,
2013-04-04 01:56:00,45.8,30.1,30.24,NE,50,0.0,0.0,54,0.00,BKN,,0.00,0.0,WeatherDisplay:10.37,2013-04-04 05:56:00,
2013-04-04 02:06:00,45.7,31.3,30.24,NE,50,0.0,0.0,57,0.00,BKN,,0.00,0.0,WeatherDisplay:10.37,2013-04-04 06:06:00,
2013-04-04 02:11:00,45.7,30.9,30.25,NE,50,0.0,0.0,56,0.00,BKN,,0.00,0.0,WeatherDisplay:10.37,2013-04-04 06:11:00,
2013-04-04 02:16:00,45.5,29.8,30.26,NNE,28,2.0,5.0,54,0.00,BKN,,0.00,0.0,WeatherDisplay:10.37,2013-04-04 06:16:00,
2013-04-04 02:21:00,45.5,26.4,30.26,NNE,13,2.0,6.0,47,0.00,BKN,,0.00,0.0,WeatherDisplay:10.37,2013-04-04 06:21:00,
2013-04-04 02:26:00,45.8,26.7,30.26,NNE,14,2.0,5.0,47,0.00,BKN,,0.00,0.0,WeatherDisplay:10.37,2013-04-04 06:26:00,
2013-04-04 02:31:00,46.0,26.9,30.26,NNE,17,1.0,2.0,47,0.00,BKN,,0.00,0.0,WeatherDisplay:10.37,2013-04-04 06:31:00,
2013-04-04 02:36:00,46.1,26.4,30.26,NNE,22,1.0,3.0,46,0.00,BKN,,0.00,0.0,WeatherDisplay:10.37,2013-04-04 06:36:00,
2013-04-04 02:41:00,46.1,26.4,30.26,NNE,26,0.0,2.0,46,0.00,BKN,,0.00,0.0,WeatherDisplay:10.37,2013-04-04 06:41:00,
2013-04-04 02:46:00,46.0,26.4,30.26,NNE,26,0.0,1.0,46,0.00,BKN,,0.00,0.0,WeatherDisplay:10.37,2013-04-04 06:46:00,
2013-04-04 02:51:00,46.0,25.8,30.27,NNE,26,1.0,2.0,45,0.00,BKN,,0.00,0.0,WeatherDisplay:10.37,2013-04-04 06:51:00,
2013-04-04 02:56:00,45.8,25.6,30.26,NNE,25,0.0,2.0,45,0.00,BKN,,0.00,0.0,WeatherDisplay:10.37,2013-04-04 06:56:00,
2013-04-04 03:11:00,45.3,25.1,30.27,NNE,28,0.0,2.0,45,0.00,BKN,,0.00,0.0,WeatherDisplay:10.37,2013-04-04 07:11:00,
2013-04-04 03:16:00,45.1,25.5,30.27,NNE,28,0.0,2.0,46,0.00,BKN,,0.00,0.0,WeatherDisplay:10.37,2013-04-04 07:16:00,
2013-04-04 03:26:00,44.7,25.7,30.27,NNE,28,0.0,2.0,47,0.00,BKN,,0.00,0.0,WeatherDisplay:10.37,2013-04-04 07:26:00,
2013-04-04 03:31:00,44.5,26.0,30.27,NNE,28,0.0,1.0,48,0.00,BKN,,0.00,0.0,WeatherDisplay:10.37,2013-04-04 07:31:00,
2013-04-04 03:36:00,44.3,26.3,30.27,NE,35,0.0,2.0,49,0.00,BKN,,0.00,0.0,WeatherDisplay:10.37,2013-04-04 07:36:00,
2013-04-04 03:41:00,44.1,26.2,30.26,NE,41,1.0,2.0,49,0.00,BKN,,0.00,0.0,WeatherDisplay:10.37,2013-04-04 07:41:00,
2013-04-04 03:51:00,43.9,26.4,30.26,NNE,18,0.0,2.0,50,0.00,BKN,,0.00,0.0,WeatherDisplay:10.37,2013-04-04 07:51:00,
2013-04-04 03:56:00,43.8,25.9,30.26,NNE,24,0.0,0.0,49,0.00,BKN,,0.00,0.0,WeatherDisplay:10.37,2013-04-04 07:56:00,
2013-04-04 04:01:00,43.6,26.2,30.26,NNE,28,0.0,3.0,50,0.00,BKN,,0.00,0.0,WeatherDisplay:10.37,2013-04-04 08:01:00,
2013-04-04 04:11:00,43.3,26.4,30.26,NNE,31,0.0,2.0,51,0.00,BKN,,0.00,0.0,WeatherDisplay:10.37,2013-04-04 08:11:00,
2013-04-04 04:16:00,43.2,26.7,30.27,NNE,31,1.0,2.0,52,0.00,BKN,,0.00,0.0,WeatherDisplay:10.37,2013-04-04 08:16:00,
2013-04-04 04:21:00,43.1,26.7,30.27,NE,34,0.0,2.0,52,0.00,BKN,,0.00,0.0,WeatherDisplay:10.37,2013-04-04 08:21:00,
2013-04-04 04:26:00,43.1,27.1,30.27,NE,35,0.0,2.0,53,0.00,BKN,,0.00,0.0,WeatherDisplay:10.37,2013-04-04 08:26:00,
2013-04-04 04:36:00,42.8,27.3,30.27,NE,35,0.0,1.0,54,0.00,BKN,,0.00,0.0,WeatherDisplay:10.37,2013-04-04 08:36:00,
2013-04-04 04:41:00,42.8,28.2,30.27,NE,35,0.0,1.0,56,0.00,BKN,,0.00,0.0,WeatherDisplay:10.37,2013-04-04 08:41:00,
2013-04-04 04:46:00,42.6,28.8,30.27,NE,40,0.0,2.0,58,0.00,BKN,,0.00,0.0,WeatherDisplay:10.37,2013-04-04 08:46:00,
2013-04-04 04:51:00,42.6,29.3,30.27,NE,45,0.0,2.0,59,0.00,BKN,,0.00,0.0,WeatherDisplay:10.37,2013-04-04 08:51:00,
2013-04-04 04:56:00,42.5,29.6,30.27,NE,45,0.0,2.0,60,0.00,BKN,,0.00,0.0,WeatherDisplay:10.37,2013-04-04 08:56:00,
2013-04-04 05:11:00,42.3,31.0,30.27,ENE,60,0.0,2.0,64,0.00,BKN,,0.00,0.0,WeatherDisplay:10.37,2013-04-04 09:11:00,
2013-04-04 05:16:00,42.2,31.3,30.28,ESE,102,0.0,1.0,65,0.00,BKN,,0.00,0.0,WeatherDisplay:10.37,2013-04-04 09:16:00,
2013-04-04 05:26:00,42.1,31.6,30.28,ESE,107,0.0,2.0,66,0.00,BKN,,0.00,0.0,WeatherDisplay:10.37,2013-04-04 09:26:00,
2013-04-04 05:31:00,41.9,31.7,30.28,ENE,74,0.0,2.0,67,0.00,BKN,,0.00,0.0,WeatherDisplay:10.37,2013-04-04 09:31:00,
2013-04-04 05:36:00,41.9,32.1,30.28,ENE,57,0.0,1.0,68,0.00,BKN,,0.00,0.0,WeatherDisplay:10.37,2013-04-04 09:36:00,
2013-04-04 05:41:00,41.8,32.0,30.28,ENE,57,0.0,2.0,68,0.00,BKN,,0.00,0.0,WeatherDisplay:10.37,2013-04-04 09:41:00,
2013-04-04 05:46:00,41.8,32.4,30.28,ENE,57,0.0,1.0,69,0.00,BKN,,0.00,0.0,WeatherDisplay:10.37,2013-04-04 09:46:00,
2013-04-04 05:51:00,41.6,32.5,30.28,ENE,57,0.0,1.0,70,0.00,BKN,,0.00,0.0,WeatherDisplay:10.37,2013-04-04 09:51:00,
2013-04-04 05:56:00,41.6,32.5,30.28,ENE,57,0.0,1.0,70,0.00,BKN,,0.00,0.0,WeatherDisplay:10.37,2013-04-04 09:56:00,
2013-04-04 06:01:00,41.6,32.5,30.28,ENE,61,0.0,2.0,70,0.00,BKN,,0.00,0.0,WeatherDisplay:10.37,2013-04-04 10:01:00,
2013-04-04 06:11:00,41.5,32.4,30.29,ENE,72,0.0,1.0,70,0.00,BKN,,0.00,0.0,WeatherDisplay:10.37,2013-04-04 10:11:00,
2013-04-04 06:16:00,41.5,32.4,30.29,East,81,0.0,2.0,70,0.00,BKN,,0.00,0.0,WeatherDisplay:10.37,2013-04-04 10:16:00,
2013-04-04 06:26:00,41.3,31.9,30.29,ENE,68,0.0,2.0,69,0.00,BKN,,0.00,0.0,WeatherDisplay:10.37,2013-04-04 10:26:00,
2013-04-04 06:36:00,41.3,31.9,30.29,NE,55,0.0,2.0,69,0.00,BKN,,0.00,0.0,WeatherDisplay:10.37,2013-04-04 10:36:00,
2013-04-04 06:41:00,41.3,31.5,30.29,NNE,31,0.0,1.0,68,0.00,BKN,,0.00,0.0,WeatherDisplay:10.37,2013-04-04 10:41:00,
2013-04-04 06:51:00,41.3,31.5,30.28,ENE,78,0.0,2.0,68,0.00,BKN,,0.00,0.0,WeatherDisplay:10.37,2013-04-04 10:51:00,
2013-04-04 06:56:00,41.3,31.2,30.29,East,79,1.0,7.0,67,0.00,BKN,,0.00,0.0,WeatherDisplay:10.37,2013-04-04 10:56:00,
2013-04-04 07:01:00,41.3,31.2,30.29,NE,52,0.0,2.0,67,0.00,BKN,,0.00,0.0,WeatherDisplay:10.37,2013-04-04 11:01:00,
2013-04-04 07:11:00,41.2,30.3,30.31,ENE,76,1.0,5.0,65,0.00,BKN,,0.00,10.4,WeatherDisplay:10.37,2013-04-04 11:11:00,
2013-04-04 07:16:00,41.2,30.7,30.31,East,82,1.0,6.0,66,0.00,BKN,,0.00,12.6,WeatherDisplay:10.37,2013-04-04 11:16:00,
2013-04-04 07:21:00,41.2,30.7,30.31,ENE,67,0.0,1.0,66,0.00,BKN,,0.00,16.1,WeatherDisplay:10.37,2013-04-04 11:21:00,
2013-04-04 07:31:00,41.2,30.3,30.31,NE,43,0.0,3.0,65,0.00,BKN,,0.00,29.9,WeatherDisplay:10.37,2013-04-04 11:31:00,
2013-04-04 07:36:00,41.2,30.3,30.31,ESE,107,0.0,3.0,65,0.00,BKN,,0.00,32.2,WeatherDisplay:10.37,2013-04-04 11:36:00,
2013-04-04 07:41:00,41.2,30.3,30.31,East,86,1.0,2.0,65,0.00,BKN,,0.00,32.2,WeatherDisplay:10.37,2013-04-04 11:41:00,
2013-04-04 07:46:00,41.2,30.3,30.31,East,93,0.0,2.0,65,0.00,BKN,,0.00,40.3,WeatherDisplay:10.37,2013-04-04 11:46:00,
2013-04-04 07:56:00,41.3,30.0,30.32,ENE,66,1.0,5.0,64,0.00,BKN,,0.00,77.1,WeatherDisplay:10.37,2013-04-04 11:56:00,
2013-04-04 08:06:00,41.6,30.3,30.32,NE,35,0.0,2.0,64,0.00,BKN,,0.00,77.1,WeatherDisplay:10.37,2013-04-04 12:06:00,
2013-04-04 08:11:00,41.8,30.1,30.32,NNE,32,1.0,2.0,63,0.00,BKN,,0.00,85.1,WeatherDisplay:10.37,2013-04-04 12:11:00,
2013-04-04 08:16:00,41.9,29.8,30.32,NE,41,0.0,5.0,62,0.00,BKN,,0.00,80.5,WeatherDisplay:10.37,2013-04-04 12:16:00,
2013-04-04 08:21:00,42.1,29.2,30.32,ENE,64,1.0,2.0,60,0.00,BKN,,0.00,79.4,WeatherDisplay:10.37,2013-04-04 12:21:00,
2013-04-04 08:26:00,42.2,29.3,30.32,ENE,57,1.0,6.0,60,0.00,BKN,,0.00,90.8,WeatherDisplay:10.37,2013-04-04 12:26:00,
2013-04-04 08:31:00,42.3,29.4,30.32,ENE,64,1.0,6.0,60,0.00,BKN,,0.00,106.9,WeatherDisplay:10.37,2013-04-04 12:31:00,
2013-04-04 08:36:00,42.5,29.6,30.32,East,86,1.0,5.0,60,0.00,BKN,,0.00,143.8,WeatherDisplay:10.37,2013-04-04 12:36:00,
2013-04-04 08:41:00,42.8,29.8,30.32,ENE,67,1.0,5.0,60,0.00,BKN,,0.00,171.4,WeatherDisplay:10.37,2013-04-04 12:41:00,
2013-04-04 08:51:00,43.2,29.8,30.32,NE,54,1.0,3.0,59,0.00,BKN,,0.00,90.8,WeatherDisplay:10.37,2013-04-04 12:51:00,
2013-04-04 08:56:00,43.3,29.1,30.32,ENE,76,0.0,6.0,57,0.00,BKN,,0.00,62.1,WeatherDisplay:10.37,2013-04-04 12:56:00,
2013-04-04 09:06:00,43.3,29.1,30.31,NE,50,1.0,3.0,57,0.00,BKN,,0.00,58.7,WeatherDisplay:10.37,2013-04-04 13:06:00,
2013-04-04 09:11:00,43.3,29.1,30.31,NE,51,0.0,2.0,57,0.00,BKN,,0.00,77.1,WeatherDisplay:10.37,2013-04-04 13:11:00,
2013-04-04 09:16:00,43.3,29.1,30.31,ENE,59,1.0,5.0,57,0.00,BKN,,0.00,98.9,WeatherDisplay:10.37,2013-04-04 13:16:00,
2013-04-04 09:26:00,43.5,30.1,30.31,NNE,30,0.0,1.0,59,0.00,BKN,,0.00,205.9,WeatherDisplay:10.37,2013-04-04 13:26:00,
2013-04-04 09:36:00,43.9,28.4,30.31,ENE,71,3.0,8.0,54,0.00,BKN,,0.00,189.7,WeatherDisplay:10.37,2013-04-04 13:36:00,
2013-04-04 09:41:00,44.2,29.5,30.31,ENE,69,2.0,5.0,56,0.00,BKN,,0.00,242.7,WeatherDisplay:10.37,2013-04-04 13:41:00,
2013-04-04 09:51:00,44.8,29.6,30.31,NE,54,0.0,2.0,55,0.00,BKN,,0.00,170.2,WeatherDisplay:10.37,2013-04-04 13:51:00,
2013-04-04 09:56:00,44.9,28.8,30.31,NE,45,2.0,3.0,53,0.00,BKN,,0.00,263.3,WeatherDisplay:10.37,2013-04-04 13:56:00,
2013-04-04 10:11:00,46.0,28.9,30.29,NE,47,0.0,2.0,51,0.00,BKN,,0.00,159.9,WeatherDisplay:10.37,2013-04-04 14:11:00,
2013-04-04 10:16:00,46.1,28.5,30.30,NNE,20,1.0,5.0,50,0.00,BKN,,0.00,77.1,WeatherDisplay:10.37,2013-04-04 14:16:00,
2013-04-04 10:26:00,46.0,28.4,30.29,NE,38,1.0,3.0,50,0.00,BKN,,0.00,88.6,WeatherDisplay:10.37,2013-04-04 14:26:00,
2013-04-04 10:31:00,45.8,28.2,30.29,NE,36,1.0,2.0,50,0.00,BKN,,0.00,179.4,WeatherDisplay:10.37,2013-04-04 14:31:00,
2013-04-04 10:36:00,45.9,28.7,30.29,ENE,60,1.0,2.0,51,0.00,BKN,,0.00,253.0,WeatherDisplay:10.37,2013-04-04 14:36:00,
2013-04-04 10:41:00,46.1,29.0,30.29,ENE,70,1.0,5.0,51,0.00,BKN,,0.00,263.3,WeatherDisplay:10.37,2013-04-04 14:41:00,
2013-04-04 11:06:00,47.9,30.1,30.28,NE,51,1.0,2.0,50,0.00,OVC,,0.00,170.2,WeatherDisplay:10.37,2013-04-04 15:06:00,
2013-04-04 11:11:00,47.7,29.5,30.27,ENE,70,2.0,5.0,49,0.00,OVC,,0.00,139.1,WeatherDisplay:10.37,2013-04-04 15:11:00,
2013-04-04 11:16:00,47.6,29.4,30.27,East,79,1.0,5.0,49,0.00,OVC,,0.00,111.6,WeatherDisplay:10.37,2013-04-04 15:16:00,
2013-04-04 11:26:00,47.3,29.6,30.27,ENE,72,1.0,3.0,50,0.00,OVC,,0.00,138.0,WeatherDisplay:10.37,2013-04-04 15:26:00,
2013-04-04 11:36:00,47.5,31.6,30.26,NE,56,0.0,2.0,54,0.00,-PL,,0.00,331.2,WeatherDisplay:10.37,2013-04-04 15:36:00,
2013-04-04 11:41:00,47.9,34.3,30.26,ENE,78,0.0,3.0,59,0.00,-PL,,0.00,371.5,WeatherDisplay:10.37,2013-04-04 15:41:00,
2013-04-04 11:46:00,48.2,35.8,30.26,NE,45,0.0,3.0,62,0.00,OVC,,0.00,271.4,WeatherDisplay:10.37,2013-04-04 15:46:00,
2013-04-04 11:56:00,48.3,36.3,30.26,ENE,63,0.0,1.0,63,0.01,RA,,0.01,178.3,WeatherDisplay:10.37,2013-04-04 15:56:00,
2013-04-04 12:06:00,48.0,35.6,30.26,NE,42,0.0,1.0,62,0.01,-PL,,0.01,167.9,WeatherDisplay:10.37,2013-04-04 16:06:00,
2013-04-04 12:11:00,47.9,34.7,30.25,NE,44,1.0,2.0,60,0.01,-PL,,0.01,194.4,WeatherDisplay:10.37,2013-04-04 16:11:00,
2013-04-04 12:16:00,47.9,35.5,30.24,NE,45,0.0,2.0,62,0.01,-PL,,0.01,240.3,WeatherDisplay:10.37,2013-04-04 16:16:00,
2013-04-04 12:21:00,48.0,36.0,30.24,NE,39,1.0,2.0,63,0.01,-PL,,0.01,202.4,WeatherDisplay:10.37,2013-04-04 16:21:00,
2013-04-04 12:26:00,48.0,35.6,30.24,NNE,25,0.0,2.0,62,0.01,-PL,,0.01,167.9,WeatherDisplay:10.37,2013-04-04 16:26:00,
2013-04-04 12:31:00,47.9,35.1,30.24,NNE,25,1.0,3.0,61,0.01,OVC,,0.01,147.2,WeatherDisplay:10.37,2013-04-04 16:31:00,
2013-04-04 12:36:00,47.9,35.5,30.23,ENE,65,0.0,2.0,62,0.01,OVC,,0.01,127.7,WeatherDisplay:10.37,2013-04-04 16:36:00,
2013-04-04 12:51:00,47.6,37.9,30.23,WNW,284,0.0,1.0,69,0.02,-RA,,0.02,64.4,WeatherDisplay:10.37,2013-04-04 16:51:00,
2013-04-04 13:06:00,46.8,38.9,30.20,ENE,66,0.0,0.0,74,0.02,-RA,,0.03,104.7,WeatherDisplay:10.37,2013-04-04 17:06:00,
2013-04-04 13:11:00,46.5,39.0,30.20,East,88,0.0,0.0,75,0.02,-RA,,0.03,111.6,WeatherDisplay:10.37,2013-04-04 17:11:00,
2013-04-04 13:16:00,46.4,39.6,30.20,South,169,0.0,1.0,77,0.03,-RA,,0.04,120.8,WeatherDisplay:10.37,2013-04-04 17:16:00,
2013-04-04 13:26:00,46.0,40.2,30.20,SSW,204,0.0,1.0,80,0.05,-RA,,0.06,120.8,WeatherDisplay:10.37,2013-04-04 17:26:00,
2013-04-04 13:31:00,45.8,40.3,30.20,SSW,204,0.0,0.0,81,0.06,-RA,,0.07,125.4,WeatherDisplay:10.37,2013-04-04 17:31:00,
2013-04-04 13:36:00,45.7,40.2,30.20,SSW,204,0.0,1.0,81,0.06,-RA,,0.07,103.5,WeatherDisplay:10.37,2013-04-04 17:36:00,
2013-04-04 13:46:00,45.2,40.3,30.20,SSW,205,0.0,0.0,83,0.06,-RA,,0.07,56.4,WeatherDisplay:10.37,2013-04-04 17:46:00,
2013-04-04 13:56:00,44.8,40.3,30.20,South,185,0.0,1.0,84,0.06,-RA,,0.08,66.7,WeatherDisplay:10.37,2013-04-04 17:56:00,
2013-04-04 14:06:00,44.6,40.4,30.20,SSE,149,0.0,1.0,85,0.06,-RA,,0.09,82.8,WeatherDisplay:10.37,2013-04-04 18:06:00,
2013-04-04 14:11:00,44.5,40.6,30.20,East,85,0.0,0.0,86,0.06,-RA,,0.09,85.1,WeatherDisplay:10.37,2013-04-04 18:11:00,
2013-04-04 14:21:00,44.5,40.9,30.18,ENE,63,0.0,1.0,87,0.05,-RA,,0.10,98.9,WeatherDisplay:10.37,2013-04-04 18:21:00,
2013-04-04 14:31:00,44.3,41.0,30.17,NE,54,0.0,0.0,88,0.03,-RA,,0.10,69.0,WeatherDisplay:10.37,2013-04-04 18:31:00,
2013-04-04 14:36:00,44.3,41.0,30.17,NE,41,1.0,2.0,88,0.03,-RA,,0.10,40.3,WeatherDisplay:10.37,2013-04-04 18:36:00,
2013-04-04 14:46:00,44.1,40.8,30.17,NNE,30,0.0,2.0,88,0.05,-RA,,0.12,42.6,WeatherDisplay:10.37,2013-04-04 18:46:00,
2013-04-04 14:51:00,43.9,40.9,30.15,NNE,26,0.0,2.0,89,0.07,-RA,,0.14,44.8,WeatherDisplay:10.37,2013-04-04 18:51:00,
2013-04-04 14:56:00,43.9,40.8,30.15,NNE,26,0.0,1.0,89,0.09,-RA,,0.17,42.6,WeatherDisplay:10.37,2013-04-04 18:56:00,
2013-04-04 15:06:00,43.5,40.8,30.12,NNE,30,0.0,0.0,90,0.11,-RA,,0.20,46.0,WeatherDisplay:10.37,2013-04-04 19:06:00,
2013-04-04 15:11:00,43.3,40.6,30.12,NE,36,0.0,0.0,90,0.12,-RA,,0.21,36.8,WeatherDisplay:10.37,2013-04-04 19:11:00,
2013-04-04 15:16:00,43.2,40.5,30.12,NE,38,0.0,0.0,90,0.12,-RA,,0.22,42.6,WeatherDisplay:10.37,2013-04-04 19:16:00,
2013-04-04 15:21:00,43.1,40.4,30.12,NE,34,0.0,0.0,90,0.12,-RA,,0.22,48.3,WeatherDisplay:10.37,2013-04-04 19:21:00,
2013-04-04 15:26:00,43.0,40.5,30.13,NNE,25,0.0,0.0,91,0.13,-RA,,0.23,54.0,WeatherDisplay:10.37,2013-04-04 19:26:00,
2013-04-04 15:31:00,42.9,40.5,30.13,NNE,25,0.0,0.0,91,0.13,-RA,,0.23,88.6,WeatherDisplay:10.37,2013-04-04 19:31:00,
2013-04-04 15:36:00,42.9,40.5,30.14,NNE,28,0.0,0.0,91,0.13,-RA,,0.23,82.8,WeatherDisplay:10.37,2013-04-04 19:36:00,
2013-04-04 15:41:00,42.9,40.7,30.13,NNE,32,0.0,0.0,92,0.12,-RA,,0.23,71.3,WeatherDisplay:10.37,2013-04-04 19:41:00,
2013-04-04 15:46:00,42.9,40.7,30.13,NE,38,0.0,0.0,92,0.11,-RA,,0.23,46.0,WeatherDisplay:10.37,2013-04-04 19:46:00,
2013-04-04 15:51:00,42.9,40.7,30.14,NE,39,0.0,0.0,92,0.10,-RA,,0.24,42.6,WeatherDisplay:10.37,2013-04-04 19:51:00,
2013-04-04 15:56:00,42.9,40.7,30.14,NE,39,0.0,0.0,92,0.08,-RA,,0.25,34.5,WeatherDisplay:10.37,2013-04-04 19:56:00,
2013-04-04 16:06:00,42.8,40.6,30.13,NNE,31,0.0,3.0,92,0.08,-RA,,0.28,64.4,WeatherDisplay:10.37,2013-04-04 20:06:00,
2013-04-04 16:16:00,42.8,40.6,30.14,NNE,29,0.0,3.0,92,0.08,-RA,,0.30,37.9,WeatherDisplay:10.37,2013-04-04 20:16:00,
2013-04-04 16:26:00,42.6,40.4,30.14,NNE,23,1.0,2.0,92,0.08,-RA,,0.31,64.4,WeatherDisplay:10.37,2013-04-04 20:26:00,
2013-04-04 16:36:00,42.6,40.7,30.12,NE,45,0.0,2.0,93,0.10,-RA,,0.33,56.4,WeatherDisplay:10.37,2013-04-04 20:36:00,
2013-04-04 16:46:00,42.6,40.7,30.12,NE,42,0.0,2.0,93,0.11,-RA,,0.34,40.3,WeatherDisplay:10.37,2013-04-04 20:46:00,
2013-04-04 16:51:00,42.5,40.6,30.11,NE,41,0.0,0.0,93,0.10,-RA,,0.34,48.3,WeatherDisplay:10.37,2013-04-04 20:51:00,
2013-04-04 16:56:00,42.5,40.6,30.10,NE,45,0.0,0.0,93,0.10,-RA,,0.35,37.9,WeatherDisplay:10.37,2013-04-04 20:56:00,
2013-04-04 17:01:00,42.5,40.6,30.10,NE,41,0.0,0.0,93,0.09,-RA,,0.35,37.9,WeatherDisplay:10.37,2013-04-04 21:01:00,
2013-04-04 17:16:00,42.2,40.3,30.09,NE,39,1.0,3.0,93,0.10,-RA,,0.40,42.6,WeatherDisplay:10.37,2013-04-04 21:16:00,
2013-04-04 17:36:00,41.9,40.3,30.08,NE,41,1.0,6.0,94,0.08,-RA,,0.41,10.4,WeatherDisplay:10.37,2013-04-04 21:36:00,
2013-04-04 17:41:00,41.9,40.3,30.08,NE,45,1.0,3.0,94,0.10,-RA,,0.43,10.4,WeatherDisplay:10.37,2013-04-04 21:41:00,
2013-04-04 17:46:00,41.8,40.2,30.08,NE,41,1.0,3.0,94,0.10,-RA,,0.44,13.8,WeatherDisplay:10.37,2013-04-04 21:46:00,
2013-04-04 17:51:00,41.8,40.2,30.08,ENE,57,0.0,3.0,94,0.11,-RA,,0.45,13.8,WeatherDisplay:10.37,2013-04-04 21:51:00,
2013-04-04 17:56:00,41.6,40.0,30.07,ENE,59,1.0,3.0,94,0.10,-RA,,0.45,24.2,WeatherDisplay:10.37,2013-04-04 21:56:00,
2013-04-04 18:01:00,41.6,40.0,30.06,NE,53,0.0,3.0,94,0.11,RA,,0.46,32.2,WeatherDisplay:10.37,2013-04-04 22:01:00,
2013-04-04 18:11:00,41.6,40.0,30.07,NE,49,0.0,2.0,94,0.08,RA,,0.47,13.8,WeatherDisplay:10.37,2013-04-04 22:11:00,
2013-04-04 18:16:00,41.5,39.9,30.07,NE,41,0.0,2.0,94,0.08,RA,,0.48,24.2,WeatherDisplay:10.37,2013-04-04 22:16:00,
2013-04-04 18:21:00,41.5,39.9,30.07,NE,37,1.0,3.0,94,0.07,RA,,0.48,18.4,WeatherDisplay:10.37,2013-04-04 22:21:00,
2013-04-04 18:26:00,41.5,39.9,30.06,NNE,27,0.0,6.0,94,0.08,RA,,0.49,13.8,WeatherDisplay:10.37,2013-04-04 22:26:00,
2013-04-04 18:36:00,41.5,39.9,30.05,NE,40,1.0,3.0,94,0.09,RA,,0.50,29.9,WeatherDisplay:10.37,2013-04-04 22:36:00,
2013-04-04 18:41:00,41.5,40.2,30.04,NE,39,2.0,5.0,95,0.08,RA,,0.51,10.4,WeatherDisplay:10.37,2013-04-04 22:41:00,
2013-04-04 18:46:00,41.5,39.9,30.03,NE,50,2.0,5.0,94,0.08,RA,,0.52,10.4,WeatherDisplay:10.37,2013-04-04 22:46:00,
2013-04-04 18:51:00,41.3,40.0,30.03,NE,49,2.0,5.0,95,0.07,RA,,0.52,5.8,WeatherDisplay:10.37,2013-04-04 22:51:00,
2013-04-04 18:56:00,41.3,40.0,30.03,NE,34,0.0,5.0,95,0.07,OVC,,0.52,5.8,WeatherDisplay:10.37,2013-04-04 22:56:00,
2013-04-04 19:01:00,41.2,39.9,30.02,NNE,29,0.0,5.0,95,0.06,OVC,,0.52,10.4,WeatherDisplay:10.37,2013-04-04 23:01:00,
2013-04-04 19:11:00,41.1,39.8,30.02,NE,51,0.0,2.0,95,0.06,RA,,0.53,0.0,WeatherDisplay:10.37,2013-04-04 23:11:00,
2013-04-04 19:26:00,40.6,39.3,30.02,NNE,30,1.0,3.0,95,0.05,-RA,,0.54,0.0,WeatherDisplay:10.37,2013-04-04 23:26:00,
2013-04-04 19:31:00,40.5,39.2,30.02,NE,38,1.0,6.0,95,0.05,-RA,,0.54,0.0,WeatherDisplay:10.37,2013-04-04 23:31:00,
2013-04-04 19:36:00,40.3,39.0,30.01,NE,51,0.0,3.0,95,0.04,-RA,,0.54,0.0,WeatherDisplay:10.37,2013-04-04 23:36:00,
2013-04-04 19:41:00,40.3,39.0,30.01,ENE,58,0.0,2.0,95,0.03,-RA,,0.54,0.0,WeatherDisplay:10.37,2013-04-04 23:41:00,
2013-04-04 19:46:00,40.3,39.0,30.01,ENE,64,1.0,3.0,95,0.02,-RA,,0.54,0.0,WeatherDisplay:10.37,2013-04-04 23:46:00,
2013-04-04 19:51:00,40.2,38.9,30.00,ENE,60,0.0,2.0,95,0.02,-RA,,0.54,0.0,WeatherDisplay:10.37,2013-04-04 23:51:00,
2013-04-04 19:56:00,40.2,38.9,30.00,NE,54,1.0,3.0,95,0.03,-RA,,0.55,0.0,WeatherDisplay:10.37,2013-04-04 23:56:00,
2013-04-04 20:01:00,40.1,38.8,30.00,NE,48,1.0,5.0,95,0.03,-RA,,0.55,0.0,WeatherDisplay:10.37,2013-04-05 00:01:00,
2013-04-04 20:26:00,39.9,38.6,29.98,NE,40,0.0,2.0,95,0.09,-RA,,0.63,0.0,WeatherDisplay:10.37,2013-04-05 00:26:00,
2013-04-04 20:41:00,39.8,38.5,29.99,NNE,20,1.0,6.0,95,0.13,-RA,,0.67,0.0,WeatherDisplay:10.37,2013-04-05 00:41:00,
2013-04-04 20:51:00,39.6,38.3,29.97,NNE,25,0.0,3.0,95,0.17,-RA,,0.71,0.0,WeatherDisplay:10.37,2013-04-05 00:51:00,
2013-04-04 20:56:00,39.6,38.3,29.97,NNE,23,2.0,8.0,95,0.17,-RA,,0.72,0.0,WeatherDisplay:10.37,2013-04-05 00:56:00,
2013-04-04 21:16:00,39.8,38.5,29.98,NNE,17,0.0,2.0,95,0.17,RA,,0.77,0.0,WeatherDisplay:10.37,2013-04-05 01:16:00,
2013-04-04 21:21:00,39.9,38.9,29.97,NNE,22,1.0,2.0,96,0.16,RA,,0.78,0.0,WeatherDisplay:10.37,2013-04-05 01:21:00,
2013-04-04 21:26:00,40.1,39.0,29.97,NNE,23,0.0,5.0,96,0.15,RA,,0.78,0.0,WeatherDisplay:10.37,2013-04-05 01:26:00,
2013-04-04 21:31:00,40.1,39.1,29.97,NNE,22,0.0,3.0,96,0.15,RA,,0.79,0.0,WeatherDisplay:10.37,2013-04-05 01:31:00,
2013-04-04 21:36:00,40.3,39.2,29.97,NNE,18,2.0,7.0,96,0.14,RA,,0.80,0.0,WeatherDisplay:10.37,2013-04-05 01:36:00,
2013-04-04 21:41:00,40.3,39.3,29.96,NNE,13,0.0,6.0,96,0.14,RA,,0.81,0.0,WeatherDisplay:10.37,2013-04-05 01:41:00,
2013-04-04 21:46:00,40.5,39.4,29.96,North,11,1.0,5.0,96,0.13,RA,,0.82,0.0,WeatherDisplay:10.37,2013-04-05 01:46:00,
2013-04-04 21:56:00,40.5,39.4,29.95,NNE,25,1.0,5.0,96,0.11,RA,,0.83,0.0,WeatherDisplay:10.37,2013-04-05 01:56:00,
2013-04-04 22:06:00,40.6,39.5,29.95,NNE,18,1.0,5.0,96,0.07,OVC,,0.83,0.0,WeatherDisplay:10.37,2013-04-05 02:06:00,
2013-04-04 22:11:00,40.6,39.5,29.94,NNE,16,1.0,6.0,96,0.08,RA,,0.84,0.0,WeatherDisplay:10.37,2013-04-05 02:11:00,
2013-04-04 22:16:00,40.8,39.7,29.94,NNE,18,0.0,3.0,96,0.07,RA,,0.84,0.0,WeatherDisplay:10.37,2013-04-05 02:16:00,
2013-04-04 22:21:00,40.8,39.7,29.93,NNE,19,3.0,6.0,96,0.06,OVC,,0.84,0.0,WeatherDisplay:10.37,2013-04-05 02:21:00,
2013-04-04 22:31:00,40.6,39.5,29.92,NNE,15,3.0,9.0,96,0.06,RA,,0.85,0.0,WeatherDisplay:10.37,2013-04-05 02:31:00,
2013-04-04 22:36:00,40.6,39.5,29.92,NNE,18,1.0,6.0,96,0.05,OVC,,0.85,0.0,WeatherDisplay:10.37,2013-04-05 02:36:00,
2013-04-04 22:46:00,40.5,39.4,29.92,North,10,0.0,3.0,96,0.03,OVC,,0.85,0.0,WeatherDisplay:10.37,2013-04-05 02:46:00,
2013-04-04 22:51:00,40.5,39.4,29.92,NNE,23,1.0,7.0,96,0.03,OVC,,0.85,0.0,WeatherDisplay:10.37,2013-04-05 02:51:00,
2013-04-04 22:56:00,40.5,39.4,29.92,NNE,25,1.0,5.0,96,0.02,OVC,,0.85,0.0,WeatherDisplay:10.37,2013-04-05 02:56:00,
2013-04-04 23:06:00,40.5,39.4,29.91,NNE,16,2.0,6.0,96,0.02,-RA,,0.85,0.0,WeatherDisplay:10.37,2013-04-05 03:06:00,
2013-04-04 23:16:00,40.3,39.3,29.92,NNE,19,1.0,2.0,96,0.02,-RA,,0.86,0.0,WeatherDisplay:10.37,2013-04-05 03:16:00,
2013-04-04 23:21:00,40.3,39.3,29.91,NNE,14,2.0,5.0,96,0.02,-RA,,0.86,0.0,WeatherDisplay:10.37,2013-04-05 03:21:00,
2013-04-04 23:26:00,40.3,39.3,29.91,NNE,15,2.0,5.0,96,0.01,-RA,,0.86,0.0,WeatherDisplay:10.37,2013-04-05 03:26:00,
2013-04-04 23:31:00,40.3,39.3,29.91,North,11,0.0,3.0,96,0.01,-RA,,0.86,0.0,WeatherDisplay:10.37,2013-04-05 03:31:00,
2013-04-04 23:36:00,40.3,39.3,29.91,NNE,14,0.0,1.0,96,0.01,-RA,,0.86,0.0,WeatherDisplay:10.37,2013-04-05 03:36:00,
2013-04-04 23:41:00,40.3,39.3,29.90,NNE,17,3.0,7.0,96,0.01,-RA,,0.86,0.0,WeatherDisplay:10.37,2013-04-05 03:41:00,
2013-04-04 23:46:00,40.3,39.3,29.89,NNE,27,0.0,5.0,96,0.01,-RA,,0.86,0.0,WeatherDisplay:10.37,2013-04-05 03:46:00,
2013-04-04 23:51:00,40.3,39.3,29.89,NNE,29,1.0,5.0,96,0.01,-RA,,0.86,0.0,WeatherDisplay:10.37,2013-04-05 03:51:00,
2013-04-04 23:56:00,40.2,39.2,29.89,NNE,22,0.0,2.0,96,0.01,-RA,,0.86,0.0,WeatherDisplay:10.37,2013-04-05 03:56:00,